[[{"header":{"parameterUnit":"m.s-1","parameterCategory":2,"la1":30.2991,"la2":30.254,"lo1":-89.0895,"lo2":-89.0444,"dy":0.0017,"dx":0.0017,"nx":28,"ny":28,"refTime":"2024-07-24T03:00:00:Z","depth":"0","parameterNumber":2,"parameterNumberName":"U-component_of_CURRENTS"},"data":[0,0,0,0,0,0,0,0,0,0,0,0,0,0,0,0,0,0,0,0,0,0,0,0,0,0,0,0,0,0,0,0,0,0,0,0,0,0,0,0,0,0,0,0,0,0,0,0,0,0,0,0,0,0,0,0,0,0,0.2267,0.2267,0,0.2285,0.2285,0.2285,0.2284,0.2284,0.2284,0.2284,0.2315,0.2316,0.2317,0,0,0,0,0,0,0,0,0,0,0,0,0,0.2246,0.2246,0.2267,0.2267,0.2268,0.2285,0.2285,0.2285,0.2284,0.2284,0.2284,0.2284,0.2315,0.2316,0.2317,0,0,0,0,0,0,0,0,0,0,0,0,0,0.2256,0.2246,0.2267,0.2272,0.2272,0.2285,0.2285,0.2285,0.2284,0.2284,0.2284,0.2284,0.2315,0.2316,0.2317,0.2325,0,0,0.2321,0.2322,0,0,0,0,0,0,0,0,0.2255,0.2256,0.227,0.2271,0.2272,0.2285,0.229,0.23,0.2284,0.2276,0.2284,0.2284,0.2308,0.231,0.2309,0.2326,0.2328,0.2321,0.2322,0.2322,0.2323,0,0,0,0,0,0,0,0.2254,0.2255,0.2271,0.2271,0.2272,0.2278,0.2279,0.2291,0.229,0.2277,0.2278,0.2285,0.2309,0.2308,0.231,0.2328,0.2321,0.2322,0.2323,0.2323,0.2397,0.2398,0,0,0,0,0,0,0.2257,0.2254,0.2271,0.2272,0.2267,0.2279,0.228,0.2278,0.229,0.2292,0.2285,0.2285,0.2306,0.2308,0.2311,0.2329,0.2322,0.2324,0.2324,0.2395,0.2397,0.2398,0,0,0,0,0,0,0.2257,0.2258,0.227,0.2267,0.2269,0.2279,0.2278,0.2279,0.2278,0.2296,0.2298,0.2283,0.2306,0.2309,0.2329,0.233,0.2324,0.2325,0.2394,0.2396,0.2398,0.236,0,0,0,0,0,0,0.2256,0.2258,0.2256,0.2266,0.2269,0.2279,0.2278,0.2279,0.2284,0.2284,0.2295,0.2298,0.2306,0.2327,0.233,0.2332,0.2326,0.2393,0.2395,0.2397,0.236,0.236,0.2361,0,0,0,0,0,0.2255,0.2254,0.2255,0.2257,0.2266,0.228,0.2281,0.2287,0.2284,0.2285,0.2297,0.2298,0.2344,0.2328,0.2332,0.2334,0.2391,0.2394,0.2397,0.2359,0.236,0.2361,0,0,0,0,0,0,0.2245,0.2254,0.2256,0.2258,0.2269,0.2281,0.2281,0.2286,0.2294,0.2293,0.2305,0.231,0.2338,0.2345,0.2327,0.2367,0.2371,0.2375,0.2342,0.2342,0.2343,0.2358,0.2327,0,0,0,0,0,0.2242,0.224,0.2256,0.2256,0.226,0.2269,0.2274,0.2279,0.2291,0.2293,0.2304,0.2324,0.2352,0.2352,0.2383,0.2387,0.2443,0.2397,0.2397,0.2397,0.2416,0.2505,0.2515,0.2407,0.2407,0.2407,0,0,0.2238,0.2244,0.2243,0.2254,0.2258,0.2268,0.2271,0.2277,0.2285,0.2297,0.2307,0.2332,0.2361,0.238,0.2391,0.2379,0.2458,0.2401,0.24,0.242,0.2509,0.2519,0.2528,0.2409,0.2409,0.2408,0,0,0.2237,0.2233,0.2236,0.2243,0.2255,0.2263,0.2265,0.2278,0.2281,0.2297,0.2319,0.2346,0.2367,0.2392,0.2406,0.2429,0.2473,0.2434,0.2426,0.251,0.252,0.2529,0.2612,0.2628,0.2415,0.2415,0.2415,0,0.2236,0.2235,0.224,0.2247,0.2248,0.2261,0.2265,0.2275,0.2294,0.2301,0.2299,0.2366,0.2379,0.2419,0.2424,0.2429,0.2488,0.2411,0.251,0.252,0.253,0.2613,0.2632,0.2414,0.2414,0.2414,0.2414,0,0.224,0.2237,0.2238,0.2247,0.2252,0.2254,0.227,0.2278,0.2282,0.2298,0.2341,0.2371,0.2412,0.2415,0.2419,0.249,0.2514,0.2513,0.2503,0.2539,0.2624,0.2644,0.2411,0.2412,0.2412,0.2413,0,0,0.2232,0.224,0.2237,0.2235,0.2246,0.2251,0.2262,0.2279,0.2294,0.2319,0.2348,0.2391,0.2417,0.244,0.2457,0.2511,0.2617,0.2531,0.2537,0.2604,0.2816,0.2744,0.276,0.2632,0.2635,0.2638,0.2845,0,0.2229,0.2237,0.2239,0.2238,0.2238,0.2246,0.2255,0.2274,0.2295,0.233,0.2372,0.2415,0.2424,0.2443,0.2505,0.2595,0.2671,0.2562,0.2781,0.2788,0.2711,0.278,0.2658,0.2824,0.2866,0.2869,0.2872,0,0.2225,0.2228,0.2228,0.2225,0.2225,0.223,0.2242,0.2256,0.2307,0.2324,0.2381,0.2427,0.2513,0.2514,0.2707,0.2639,0.2738,0.2804,0.2814,0.2778,0.2754,0.2798,0.2861,0.2731,0.2904,0.2901,0.2899,0,0.2209,0.2212,0.2207,0.2207,0.2216,0.2214,0.222,0.2254,0.2268,0.2335,0.2364,0.2473,0.2535,0.2674,0.2804,0.2774,0.3022,0.2997,0.3037,0.3034,0.2989,0.2974,0.2944,0.3165,0.3165,0.3164,0.3164,0,0.2197,0.2191,0.2199,0.2197,0.2191,0.2199,0.2206,0.2227,0.2269,0.2298,0.2369,0.2429,0.2582,0.2725,0.2844,0.3004,0.3068,0.3068,0.309,0.297,0.2952,0.2884,0.2826,0.3172,0.317,0.3169,0.3168,0,0.2182,0.2187,0.2182,0.2185,0.2186,0.2182,0.2189,0.2196,0.224,0.2289,0.2313,0.2434,0.26,0.2757,0.2987,0.3046,0.3106,0.3252,0.3092,0.3089,0.2947,0.2892,0.2834,0.2777,0.3326,0.3325,0.3325,0,0.2179,0.2175,0.2175,0.2163,0.2162,0.2158,0.215,0.2179,0.2193,0.2292,0.2317,0.2477,0.2569,0.2859,0.3013,0.3218,0.3109,0.3199,0.3103,0.2939,0.2897,0.2751,0.2697,0.3049,0.3046,0.3044,0.3043,0,0.2164,0.2162,0.2156,0.2145,0.213,0.2116,0.2115,0.2121,0.2162,0.2205,0.2285,0.2366,0.2617,0.2736,0.297,0.3087,0.2979,0.3157,0.3046,0.2728,0.2515,0.2468,0.2911,0.3024,0.3026,0.3027,0.3028,0.3029,0.2146,0.2142,0.2133,0.211,0.2092,0.2064,0.2038,0.2051,0.2065,0.2109,0.2222,0.2307,0.2459,0.2752,0.2847,0.2864,0.288,0.2801,0.2773,0.2658,0.2502,0.2887,0.2967,0.2968,0.297,0.2971,0.2972,0,0.2117,0.2111,0.2095,0.2059,0.2011,0.2022,0.2,0.1969,0.1963,0.2031,0.2088,0.2195,0.2294,0.2428,0.2523,0.2476,0.2411,0.2418,0.2192,0.2184,0.2595,0.2476,0.2379,0.238,0.238,0.238,0.238,0.238,0.2103,0.2078,0.2069,0.1982,0.1948,0.1885,0.1859,0.1836,0.1859,0.1863,0.1898,0.1963,0.2038,0.2076,0.2049,0.206,0.192,0.1842,0.1864,0.2135,0.2167,0.2198,0.207,0.1889,0.1889,0.1361,0.1357,0.1353]},{"header":{"parameterUnit":"m.s-1","parameterCategory":2,"la1":30.2991,"la2":30.254,"lo1":-89.0895,"lo2":-89.0444,"dy":0.0017,"dx":0.0017,"nx":28,"ny":28,"refTime":"2024-07-24T03:00:00:Z","depth":"0","parameterNumber":3,"parameterNumberName":"V-component_of_CURRENTS"},"data":[0,0,0,0,0,0,0,0,0,0,0,0,0,0,0,0,0,0,0,0,0,0,0,0,0,0,0,0,0,0,0,0,0,0,0,0,0,0,0,0,0,0,0,0,0,0,0,0,0,0,0,0,0,0,0,0,0,0,0.0291,0.029,0,0.0265,0.0264,0.0264,0.0218,0.0217,0.0216,0.0215,0.0162,0.0161,0.0161,0,0,0,0,0,0,0,0,0,0,0,0,0,0.0346,0.0345,0.0291,0.029,0.029,0.0265,0.0264,0.0264,0.0218,0.0217,0.0216,0.0215,0.0162,0.0161,0.0161,0,0,0,0,0,0,0,0,0,0,0,0,0,0.0321,0.0345,0.0291,0.0264,0.0261,0.0265,0.0264,0.0264,0.0218,0.0217,0.0215,0.0214,0.0162,0.0161,0.016,0.0182,0,0,0.0158,0.0157,0,0,0,0,0,0,0,0,0.0323,0.0319,0.0268,0.0266,0.0263,0.0243,0.0264,0.0235,0.0219,0.0235,0.0215,0.0214,0.0187,0.0184,0.0183,0.018,0.0178,0.0158,0.0157,0.0157,0.0157,0,0,0,0,0,0,0,0.0325,0.0321,0.0281,0.0268,0.0264,0.0269,0.0263,0.0259,0.0219,0.0233,0.023,0.0227,0.0185,0.0184,0.0181,0.0177,0.0158,0.0157,0.0156,0.0156,0.0184,0.0185,0,0,0,0,0,0,0.0326,0.0322,0.0282,0.028,0.029,0.0268,0.0262,0.0251,0.0219,0.0213,0.0228,0.0225,0.0186,0.0182,0.0179,0.0204,0.0157,0.0156,0.0156,0.0182,0.0184,0.0185,0,0,0,0,0,0,0.0327,0.0322,0.0283,0.0301,0.0296,0.0268,0.0256,0.0251,0.0244,0.0215,0.0209,0.0225,0.0185,0.018,0.0181,0.0202,0.0156,0.0155,0.0181,0.0183,0.0185,0.0254,0,0,0,0,0,0,0.0329,0.0323,0.0324,0.03,0.0295,0.029,0.0257,0.0251,0.0244,0.024,0.0211,0.0205,0.0184,0.0183,0.018,0.02,0.0154,0.0179,0.0182,0.0184,0.025,0.0258,0.0264,0,0,0,0,0,0.0331,0.0338,0.0324,0.032,0.0294,0.0291,0.0289,0.0265,0.0246,0.0252,0.0233,0.0206,0.0195,0.0183,0.018,0.02,0.0178,0.0181,0.0184,0.0247,0.0256,0.0264,0,0,0,0,0,0,0.0372,0.0334,0.0317,0.0314,0.0305,0.0283,0.0289,0.0271,0.0262,0.0255,0.0223,0.0217,0.0226,0.0207,0.0194,0.0215,0.0182,0.0185,0.0231,0.024,0.0247,0.0265,0.0153,0,0,0,0,0,0.038,0.0371,0.0342,0.0345,0.0337,0.0314,0.0311,0.0295,0.028,0.0274,0.0257,0.0242,0.0238,0.0233,0.0227,0.024,0.0238,0.025,0.0258,0.0264,0.0277,0.0297,0.0308,0.0195,0.0194,0.0194,0,0,0.04,0.0378,0.0375,0.0353,0.0341,0.0346,0.0309,0.0308,0.0316,0.0272,0.0284,0.0268,0.0248,0.0263,0.0265,0.0246,0.0297,0.0267,0.0273,0.0283,0.0301,0.0312,0.0322,0.0196,0.0196,0.0196,0,0,0.044,0.0413,0.0418,0.041,0.0393,0.0377,0.0377,0.0357,0.035,0.036,0.0332,0.0336,0.0323,0.0321,0.0315,0.0362,0.0336,0.0352,0.0402,0.0421,0.043,0.0439,0.0458,0.0467,0.0354,0.0354,0.0354,0,0.0471,0.046,0.0426,0.0433,0.0429,0.0392,0.0404,0.0401,0.0389,0.0396,0.0371,0.0379,0.0356,0.0383,0.0393,0.0379,0.0383,0.0368,0.0431,0.0439,0.0447,0.0464,0.0473,0.0357,0.0357,0.0357,0.0356,0,0.051,0.0504,0.051,0.0497,0.0495,0.0499,0.0481,0.0489,0.0472,0.0469,0.049,0.047,0.0477,0.0467,0.044,0.0484,0.0467,0.044,0.041,0.0462,0.0477,0.0486,0.0363,0.0361,0.036,0.0359,0,0,0.0567,0.054,0.0543,0.0539,0.0522,0.0524,0.0545,0.0552,0.0577,0.0569,0.0608,0.0595,0.0586,0.058,0.0554,0.0562,0.0611,0.0523,0.0523,0.0545,0.0657,0.0619,0.0625,0.0591,0.0593,0.0594,0.0648,0,0.0605,0.0615,0.0598,0.0619,0.0614,0.0597,0.0623,0.0631,0.0634,0.067,0.0658,0.0682,0.0629,0.0638,0.0642,0.0619,0.0636,0.0599,0.0601,0.0601,0.0563,0.0634,0.0622,0.0667,0.0657,0.0658,0.0659,0,0.0643,0.0636,0.0651,0.0653,0.0655,0.0674,0.07,0.0721,0.0759,0.0768,0.0794,0.0788,0.081,0.0754,0.076,0.0736,0.071,0.0686,0.0687,0.0636,0.058,0.0611,0.0683,0.0577,0.0672,0.0671,0.067,0,0.0667,0.0676,0.068,0.068,0.0685,0.0705,0.0719,0.0752,0.0784,0.0838,0.0877,0.0894,0.0915,0.0889,0.0835,0.0805,0.0838,0.079,0.0738,0.0735,0.0718,0.0709,0.069,0.081,0.081,0.081,0.081,0,0.0694,0.0704,0.0693,0.0696,0.0728,0.0727,0.0781,0.0806,0.0863,0.092,0.0931,0.0986,0.0948,0.0955,0.0892,0.085,0.0887,0.0772,0.0756,0.074,0.0734,0.0633,0.0579,0.0812,0.0811,0.0811,0.0811,0,0.0715,0.0706,0.0714,0.0723,0.0733,0.0756,0.0811,0.0857,0.0907,0.0988,0.1013,0.107,0.1081,0.1036,0.1005,0.0928,0.0838,0.0857,0.0841,0.0821,0.0651,0.0602,0.0617,0.0593,0.0818,0.0818,0.0818,0,0.0723,0.0723,0.0731,0.0743,0.0749,0.0784,0.0819,0.0871,0.0923,0.1036,0.1083,0.1137,0.1185,0.1137,0.1021,0.0937,0.0847,0.0846,0.0779,0.0663,0.0597,0.0586,0.0563,0.0791,0.079,0.079,0.0789,0,0.0735,0.0735,0.0742,0.0762,0.0792,0.0836,0.089,0.0938,0.1013,0.1091,0.1197,0.1254,0.1229,0.1159,0.1038,0.0954,0.078,0.083,0.0726,0.0596,0.0571,0.0532,0.0728,0.0785,0.0786,0.0786,0.0786,0.0786,0.0744,0.0755,0.076,0.0786,0.0825,0.0886,0.0932,0.1001,0.1093,0.1219,0.1267,0.1367,0.1261,0.1107,0.0977,0.0717,0.0751,0.0623,0.0584,0.0591,0.0537,0.072,0.0737,0.0737,0.0737,0.0737,0.0737,0,0.0742,0.0759,0.0786,0.0821,0.087,0.089,0.0979,0.1036,0.114,0.1265,0.1362,0.1381,0.1207,0.1015,0.0687,0.0503,0.0464,0.0401,0.0378,0.0374,0.0549,0.0512,0.0462,0.0462,0.0462,0.0462,0.0462,0.0462,0.0742,0.076,0.0778,0.0847,0.0885,0.0961,0.1013,0.1105,0.1204,0.1348,0.1427,0.1489,0.1328,0.076,0.036,0.0269,0.0166,0.0153,0.0112,0.0195,0.0212,0.0228,0.018,0.0061,0.006,-0.0034,-0.0036,-0.0037]}],[{"header":{"parameterUnit":"m.s-1","parameterCategory":2,"la1":30.2991,"la2":30.254,"lo1":-89.0895,"lo2":-89.0444,"dy":0.0017,"dx":0.0017,"nx":28,"ny":28,"refTime":"2024-07-24T03:00:00:Z","depth":"2","parameterNumber":2,"parameterNumberName":"U-component_of_CURRENTS"},"data":[0,0,0,0,0,0,0,0,0,0,0,0,0,0,0,0,0,0,0,0,0,0,0,0,0,0,0,0,0,0,0,0,0,0,0,0,0,0,0,0,0,0,0,0,0,0,0,0,0,0,0,0,0,0,0,0,0,0,0.0629,0.0629,0,0.0671,0.0671,0.0672,0.071,0.0711,0.0711,0.0712,0.0836,0.0839,0.0842,0,0,0,0,0,0,0,0,0,0,0,0,0,0.0636,0.0635,0.0629,0.0629,0.063,0.0671,0.0671,0.0672,0.071,0.0711,0.0712,0.0712,0.0835,0.0839,0.0842,0,0,0,0,0,0,0,0,0,0,0,0,0,0.065,0.0635,0.0629,0.0654,0.0657,0.067,0.0671,0.0672,0.071,0.0711,0.0712,0.0712,0.0834,0.0838,0.0843,0.0855,0,0,0.0856,0.0858,0,0,0,0,0,0,0,0,0.065,0.065,0.065,0.0652,0.0655,0.0686,0.0719,0.0737,0.071,0.069,0.0712,0.0713,0.0793,0.0801,0.0806,0.0861,0.0866,0.0856,0.0859,0.0861,0.0862,0,0,0,0,0,0,0,0.0648,0.0649,0.0645,0.065,0.0654,0.0682,0.0684,0.0723,0.0739,0.0692,0.0695,0.0699,0.0796,0.0802,0.0809,0.0868,0.0856,0.086,0.0863,0.0864,0.0986,0.0987,0,0,0,0,0,0,0.0639,0.0647,0.0644,0.0647,0.0654,0.0681,0.0683,0.0676,0.0736,0.0746,0.0698,0.0701,0.0794,0.0804,0.0814,0.0899,0.0861,0.0865,0.0867,0.0985,0.0986,0.0987,0,0,0,0,0,0,0.0639,0.0638,0.0642,0.0649,0.0652,0.0679,0.0671,0.0676,0.0706,0.0741,0.0752,0.0726,0.0795,0.0808,0.0865,0.0902,0.0867,0.0871,0.0985,0.0986,0.0987,0.1027,0,0,0,0,0,0,0.0639,0.0637,0.0643,0.0648,0.0651,0.0665,0.067,0.0676,0.0706,0.0711,0.0768,0.0778,0.0797,0.0859,0.087,0.0907,0.0874,0.0984,0.0985,0.0986,0.1025,0.1029,0.1033,0,0,0,0,0,0.0639,0.064,0.0642,0.0643,0.0651,0.0666,0.067,0.0693,0.0707,0.0723,0.076,0.0778,0.0874,0.0863,0.0875,0.0915,0.0983,0.0985,0.0986,0.1023,0.1028,0.1033,0,0,0,0,0,0,0.066,0.0644,0.0647,0.0647,0.0662,0.0673,0.0695,0.0706,0.0746,0.0765,0.0791,0.0805,0.0864,0.088,0.0867,0.095,0.093,0.0934,0.0954,0.0959,0.0963,0.0982,0.0877,0,0,0,0,0,0.0661,0.0653,0.0653,0.0661,0.0668,0.0686,0.07,0.0717,0.0745,0.0764,0.0802,0.0842,0.0874,0.091,0.0938,0.0994,0.0988,0.1024,0.1028,0.1031,0.1053,0.1057,0.1064,0.0992,0.0992,0.0992,0,0,0.0677,0.0665,0.0667,0.0665,0.0681,0.0696,0.0697,0.073,0.0752,0.0773,0.0832,0.086,0.0888,0.0943,0.0972,0.0969,0.1044,0.1033,0.1036,0.1057,0.1059,0.1066,0.1073,0.0993,0.0993,0.0993,0,0,0.07,0.0693,0.0696,0.0702,0.0722,0.0728,0.0741,0.0767,0.0791,0.0841,0.0857,0.0909,0.0965,0.0995,0.1014,0.1059,0.1057,0.1069,0.1123,0.1126,0.1133,0.1138,0.1121,0.1124,0.1081,0.1082,0.1082,0,0.0724,0.0712,0.0706,0.0712,0.0721,0.0743,0.0759,0.0784,0.0831,0.0855,0.0869,0.0955,0.0989,0.1046,0.1073,0.1073,0.1065,0.1104,0.1133,0.1138,0.1143,0.1124,0.1127,0.1084,0.1083,0.1083,0.1083,0,0.0738,0.074,0.0748,0.075,0.0764,0.0785,0.0806,0.0843,0.0877,0.09,0.097,0.1016,0.1071,0.1088,0.1108,0.1165,0.1143,0.1127,0.1121,0.1153,0.113,0.1133,0.1087,0.1086,0.1085,0.1085,0,0,0.0751,0.0754,0.076,0.0758,0.0782,0.079,0.0838,0.0872,0.0904,0.0969,0.1012,0.1095,0.1131,0.1156,0.1185,0.1212,0.1245,0.1205,0.1204,0.1191,0.1241,0.1223,0.1224,0.1234,0.1236,0.1237,0.1204,0,0.0764,0.0765,0.0773,0.0793,0.0789,0.0823,0.0856,0.0899,0.0943,0.0993,0.1056,0.1116,0.115,0.1196,0.1229,0.1241,0.1258,0.1254,0.1211,0.121,0.1193,0.1229,0.1111,0.1074,0.1207,0.1207,0.1207,0,0.0758,0.0754,0.0768,0.0781,0.0789,0.0825,0.0872,0.0908,0.0982,0.1022,0.1101,0.1143,0.1229,0.1237,0.1285,0.1282,0.128,0.1278,0.1275,0.1255,0.1199,0.1067,0.1074,0.1212,0.1212,0.1211,0.1211,0,0.0716,0.0743,0.0748,0.0753,0.0785,0.0825,0.0866,0.0932,0.0961,0.1061,0.1093,0.118,0.1233,0.1257,0.1303,0.1292,0.1326,0.1289,0.1259,0.1256,0.1148,0.1134,0.1307,0.1307,0.1307,0.1307,0.1308,0,0.068,0.0686,0.0742,0.0736,0.0771,0.0813,0.0869,0.0921,0.0994,0.1035,0.1121,0.1169,0.1246,0.1282,0.13,0.1307,0.132,0.1285,0.1259,0.1156,0.1144,0.1261,0.1257,0.1306,0.1306,0.1307,0.1307,0,0.0618,0.0648,0.0654,0.0713,0.0745,0.0776,0.0868,0.0899,0.098,0.1038,0.1078,0.1165,0.1233,0.1281,0.1318,0.1296,0.1304,0.1295,0.1172,0.1134,0.122,0.1218,0.1236,0.1235,0.1235,0.1235,0.1234,0,0.0584,0.0579,0.0637,0.0659,0.07,0.0765,0.0806,0.0893,0.0927,0.1035,0.105,0.1148,0.1206,0.1249,0.1245,0.125,0.1307,0.1136,0.1103,0.1247,0.1219,0.1217,0.1216,0.0955,0.0952,0.095,0.0948,0,0.0522,0.0553,0.0563,0.0613,0.0665,0.0707,0.0786,0.0802,0.0904,0.0953,0.1033,0.1093,0.1143,0.1125,0.1145,0.1123,0.1131,0.1091,0.1271,0.1008,0.0984,0.0956,0.0963,0.0929,0.0931,0.0932,0.0933,0.0934,0.0496,0.0496,0.053,0.0576,0.0629,0.0676,0.0709,0.0765,0.0818,0.0897,0.0965,0.1016,0.1005,0.0987,0.0977,0.0966,0.1015,0.096,0.0965,0.0973,0.0963,0.0942,0.0875,0.0877,0.0878,0.0879,0.088,0,0.0473,0.0488,0.0503,0.0556,0.0595,0.0663,0.0709,0.0717,0.077,0.0825,0.0894,0.079,0.08,0.0838,0.0777,0.0757,0.0728,0.0747,0.0707,0.0724,0.074,0.0719,0.0566,0.0566,0.0565,0.0565,0,0,0.0454,0.0466,0.0469,0.0526,0.0591,0.0656,0.0692,0.0682,0.0697,0.0668,0.069,0.0763,0.0782,0.0662,0.0633,0.0616,0.067,0.0586,0.0828,0.0795,0.0812,0.0839,0.0824,0,0,0,0,0]},{"header":{"parameterUnit":"m.s-1","parameterCategory":2,"la1":30.2991,"la2":30.254,"lo1":-89.0895,"lo2":-89.0444,"dy":0.0017,"dx":0.0017,"nx":28,"ny":28,"refTime":"2024-07-24T03:00:00:Z","depth":"2","parameterNumber":3,"parameterNumberName":"V-component_of_CURRENTS"},"data":[0,0,0,0,0,0,0,0,0,0,0,0,0,0,0,0,0,0,0,0,0,0,0,0,0,0,0,0,0,0,0,0,0,0,0,0,0,0,0,0,0,0,0,0,0,0,0,0,0,0,0,0,0,0,0,0,0,0,-0.0335,-0.0336,0,-0.0381,-0.0381,-0.0382,-0.0421,-0.0421,-0.0422,-0.0422,-0.0484,-0.0485,-0.0486,0,0,0,0,0,0,0,0,0,0,0,0,0,-0.0259,-0.026,-0.0335,-0.0336,-0.0337,-0.0381,-0.0381,-0.0382,-0.0421,-0.0421,-0.0422,-0.0423,-0.0483,-0.0485,-0.0486,0,0,0,0,0,0,0,0,0,0,0,0,0,-0.0296,-0.0261,-0.0335,-0.0362,-0.0365,-0.038,-0.0381,-0.0382,-0.0421,-0.0421,-0.0422,-0.0423,-0.0483,-0.0485,-0.0486,-0.048,0,0,-0.0491,-0.0492,0,0,0,0,0,0,0,0,-0.0294,-0.0299,-0.0358,-0.036,-0.0364,-0.0397,-0.0377,-0.0416,-0.042,-0.0398,-0.0422,-0.0423,-0.0456,-0.046,-0.0465,-0.0483,-0.0486,-0.0491,-0.0493,-0.0493,-0.0494,0,0,0,0,0,0,0,-0.0291,-0.0297,-0.0352,-0.0358,-0.0362,-0.0364,-0.037,-0.0384,-0.0422,-0.04,-0.0404,-0.041,-0.0458,-0.0463,-0.0467,-0.0486,-0.0491,-0.0493,-0.0494,-0.0495,-0.055,-0.0551,0,0,0,0,0,0,-0.0289,-0.0294,-0.0351,-0.0354,-0.0331,-0.0365,-0.0372,-0.0385,-0.0421,-0.0428,-0.0409,-0.0412,-0.046,-0.0465,-0.0469,-0.0479,-0.0493,-0.0495,-0.0496,-0.055,-0.055,-0.0551,0,0,0,0,0,0,-0.0287,-0.0293,-0.0349,-0.0325,-0.0333,-0.0366,-0.0379,-0.0385,-0.0397,-0.0428,-0.0435,-0.0416,-0.0461,-0.0467,-0.0487,-0.0481,-0.0496,-0.0497,-0.0549,-0.055,-0.0551,-0.0488,0,0,0,0,0,0,-0.0284,-0.0292,-0.0298,-0.0326,-0.0334,-0.0356,-0.0379,-0.0385,-0.04,-0.0403,-0.0436,-0.0442,-0.0462,-0.0485,-0.0489,-0.0483,-0.0498,-0.0549,-0.0549,-0.055,-0.049,-0.0487,-0.0484,0,0,0,0,0,-0.0282,-0.0288,-0.0298,-0.0305,-0.0342,-0.0356,-0.036,-0.0385,-0.0399,-0.0399,-0.0426,-0.0441,-0.0494,-0.0486,-0.0491,-0.0486,-0.0548,-0.0549,-0.055,-0.0491,-0.0487,-0.0484,0,0,0,0,0,0,-0.0259,-0.0294,-0.0305,-0.0323,-0.0336,-0.0363,-0.0367,-0.0383,-0.0403,-0.041,-0.044,-0.0448,-0.0468,-0.0488,-0.0479,-0.0509,-0.0526,-0.0528,-0.048,-0.0476,-0.0474,-0.0449,-0.05,0,0,0,0,0,-0.0255,-0.0272,-0.0297,-0.031,-0.0315,-0.0339,-0.0348,-0.0364,-0.0387,-0.0397,-0.042,-0.045,-0.0475,-0.0484,-0.0511,-0.0516,-0.0538,-0.0521,-0.0519,-0.0516,-0.0502,-0.0545,-0.0545,-0.0554,-0.0554,-0.0554,0,0,-0.0252,-0.0272,-0.0282,-0.0306,-0.0318,-0.0321,-0.0346,-0.0358,-0.0363,-0.0399,-0.0413,-0.0441,-0.0477,-0.0491,-0.0501,-0.0505,-0.0524,-0.0517,-0.0514,-0.0502,-0.0546,-0.0545,-0.0544,-0.0555,-0.0555,-0.0555,0,0,-0.0243,-0.0266,-0.0271,-0.0278,-0.0295,-0.031,-0.0312,-0.0335,-0.0348,-0.0361,-0.0395,-0.0414,-0.0449,-0.0469,-0.0485,-0.0482,-0.0512,-0.05,-0.0455,-0.0497,-0.0496,-0.0496,-0.051,-0.0511,-0.0492,-0.0491,-0.0491,0,-0.0233,-0.0247,-0.0271,-0.0269,-0.0274,-0.0302,-0.0298,-0.0312,-0.034,-0.0347,-0.036,-0.0409,-0.0436,-0.0451,-0.0449,-0.0472,-0.0496,-0.0459,-0.0491,-0.0491,-0.0492,-0.0507,-0.0509,-0.0489,-0.0489,-0.0489,-0.0489,0,-0.0226,-0.0231,-0.0231,-0.0242,-0.0247,-0.0249,-0.0268,-0.0277,-0.0295,-0.0311,-0.033,-0.0362,-0.0387,-0.0402,-0.042,-0.0436,-0.0451,-0.0486,-0.0492,-0.0487,-0.0503,-0.0506,-0.0484,-0.0485,-0.0486,-0.0487,0,0,-0.0215,-0.0225,-0.0223,-0.022,-0.0233,-0.0236,-0.0239,-0.025,-0.0253,-0.0275,-0.0276,-0.0308,-0.0322,-0.0341,-0.0369,-0.0393,-0.041,-0.043,-0.0434,-0.0428,-0.0486,-0.0416,-0.0413,-0.0455,-0.0456,-0.0456,-0.049,0,-0.0198,-0.0191,-0.02,-0.0188,-0.0185,-0.0202,-0.02,-0.0213,-0.023,-0.0239,-0.0265,-0.0281,-0.0302,-0.0309,-0.0335,-0.0398,-0.0418,-0.0396,-0.0505,-0.0507,-0.0434,-0.0415,-0.0414,-0.0437,-0.0494,-0.0494,-0.0495,0,-0.0184,-0.0183,-0.0171,-0.0163,-0.0161,-0.0158,-0.0162,-0.0164,-0.0182,-0.0191,-0.0203,-0.023,-0.0249,-0.028,-0.0356,-0.0343,-0.0402,-0.0448,-0.0452,-0.0408,-0.0443,-0.0457,-0.0441,-0.05,-0.05,-0.0499,-0.0499,0,-0.017,-0.0158,-0.015,-0.0149,-0.0148,-0.0142,-0.0141,-0.0151,-0.0147,-0.0161,-0.0154,-0.0193,-0.02,-0.0282,-0.0345,-0.0366,-0.043,-0.0483,-0.0472,-0.0468,-0.0496,-0.0492,-0.0544,-0.0544,-0.0544,-0.0544,-0.0544,0,-0.0155,-0.0145,-0.0143,-0.0141,-0.0122,-0.0125,-0.011,-0.0112,-0.011,-0.0087,-0.0126,-0.0105,-0.0204,-0.0244,-0.033,-0.0379,-0.042,-0.0445,-0.0468,-0.0471,-0.0465,-0.055,-0.055,-0.0545,-0.0545,-0.0544,-0.0544,0,-0.0146,-0.0145,-0.0134,-0.0126,-0.0118,-0.0107,-0.0083,-0.007,-0.0068,-0.0037,-0.0034,-0.0048,-0.0075,-0.016,-0.0274,-0.0336,-0.0416,-0.0431,-0.0399,-0.0415,-0.0435,-0.0432,-0.0434,-0.0432,-0.043,-0.0428,-0.0427,0,-0.0144,-0.0139,-0.0124,-0.0107,-0.0102,-0.0082,-0.006,-0.0052,-0.0027,0.0013,0.0039,0.0035,0.0062,-0.0048,-0.0166,-0.0278,-0.0335,-0.0358,-0.0393,-0.0399,-0.0422,-0.0422,-0.0422,-0.0417,-0.0415,-0.0414,-0.0414,0,-0.0135,-0.0132,-0.0123,-0.0089,-0.0064,-0.0027,0.0009,0.0038,0.007,0.0119,0.0193,0.022,0.0147,0.0059,-0.0073,-0.0164,-0.0337,-0.0335,-0.0378,-0.042,-0.0379,-0.0403,-0.0404,-0.0404,-0.0405,-0.0406,-0.0406,-0.0407,-0.0128,-0.0113,-0.0094,-0.0058,-0.002,0.0046,0.0089,0.0146,0.0223,0.0325,0.0327,0.0368,0.0203,0.0066,-0.005,-0.0187,-0.0217,-0.0315,-0.0321,-0.0328,-0.0295,-0.025,-0.0244,-0.0244,-0.0244,-0.0244,-0.0244,0,-0.0112,-0.0085,-0.0055,0.0,0.0058,0.0073,0.0154,0.0215,0.0336,0.0419,0.0505,0.0363,0.0281,0.0114,-0.007,-0.0186,-0.023,-0.0227,-0.0288,-0.0297,-0.0305,-0.0274,-0.0217,-0.0216,-0.0216,-0.0216,0,0,-0.0098,-0.0061,-0.0039,0.0066,0.0116,0.0204,0.0262,0.0362,0.0429,0.0517,0.0531,0.0539,0.0299,0.0158,-0.0009,-0.0098,-0.016,-0.0111,-0.0129,-0.019,-0.0196,-0.0359,-0.0319,0,0,0,0,0]}],[{"header":{"parameterUnit":"m.s-1","parameterCategory":2,"la1":30.2991,"la2":30.254,"lo1":-89.0895,"lo2":-89.0444,"dy":0.0017,"dx":0.0017,"nx":28,"ny":28,"refTime":"2024-07-24T03:00:00:Z","depth":"4","parameterNumber":2,"parameterNumberName":"U-component_of_CURRENTS"},"data":[0,0,0,0,0,0,0,0,0,0,0,0,0,0,0,0,0,0,0,0,0,0,0,0,0,0,0,0,0,0,0,0,0,0,0,0,0,0,0,0,0,0,0,0,0,0,0,0,0,0,0,0,0,0,0,0,0,0,0.0066,0.0066,0,0.0115,0.0115,0.0116,0.0182,0.0183,0.0185,0.0186,0.0184,0.0183,0.0182,0,0,0,0,0,0,0,0,0,0,0,0,0,-0.0022,-0.0021,0.0065,0.0066,0.0067,0.0115,0.0115,0.0116,0.0182,0.0183,0.0185,0.0186,0.0184,0.0183,0.0181,0,0,0,0,0,0,0,0,0,0,0,0,0,0.0019,-0.002,0.0065,0.0107,0.0111,0.0115,0.0115,0.0116,0.0182,0.0183,0.0185,0.0187,0.0185,0.0183,0.0181,0.0133,0,0,0.0176,0.0175,0,0,0,0,0,0,0,0,0.0017,0.0022,0.01,0.0104,0.0109,0.0146,0.0084,0.012,0.0181,0.0153,0.0186,0.0188,0.0166,0.0166,0.017,0.0133,0.0133,0.0176,0.0175,0.0174,0.0173,0,0,0,0,0,0,0,0.0014,0.002,0.0084,0.0101,0.0106,0.0106,0.0114,0.0091,0.0146,0.0156,0.0161,0.0168,0.0168,0.0171,0.017,0.0133,0.0176,0.0174,0.0173,0.0172,0.0125,0.0125,0,0,0,0,0,0,0.0012,0.0018,0.0082,0.0085,0.0068,0.0106,0.0115,0.0131,0.0148,0.0153,0.0167,0.0171,0.0173,0.0172,0.017,0.0175,0.0174,0.0172,0.0171,0.0125,0.0125,0.0125,0,0,0,0,0,0,0.001,0.0017,0.008,0.0053,0.0062,0.0106,0.0123,0.0131,0.0164,0.0157,0.0162,0.0195,0.0175,0.0173,0.017,0.0174,0.0171,0.017,0.0125,0.0125,0.0125,0.0146,0,0,0,0,0,0,0.0007,0.0016,0.0029,0.0053,0.0063,0.0098,0.0121,0.013,0.0164,0.0171,0.0182,0.0182,0.0176,0.0173,0.0168,0.0171,0.0168,0.0125,0.0125,0.0125,0.0146,0.0147,0.0148,0,0,0,0,0,0.0004,0.0013,0.003,0.0038,0.0079,0.0099,0.0104,0.014,0.0164,0.0177,0.0184,0.0184,0.0168,0.0171,0.0166,0.0168,0.0126,0.0125,0.0125,0.0145,0.0147,0.0148,0,0,0,0,0,0,-0.0021,0.0022,0.004,0.0063,0.0087,0.0111,0.0124,0.015,0.0166,0.0176,0.0176,0.0176,0.0176,0.0164,0.0168,0.0153,0.0147,0.0146,0.0165,0.0166,0.0167,0.017,0.0167,0,0,0,0,0,-0.0022,-0.0,0.0035,0.0051,0.0066,0.0098,0.0113,0.014,0.0155,0.0168,0.0177,0.0175,0.0163,0.0162,0.015,0.0135,0.0134,0.0134,0.0135,0.0136,0.0135,0.0132,0.0133,0.0123,0.0123,0.0123,0,0,-0.0032,-0.0003,0.0007,0.0047,0.0068,0.0086,0.0113,0.0141,0.0159,0.0159,0.0183,0.0179,0.016,0.0152,0.015,0.0147,0.014,0.0136,0.0137,0.0135,0.0132,0.0133,0.0134,0.0123,0.0123,0.0123,0,0,-0.0047,-0.0011,0.0002,0.0027,0.0067,0.0086,0.01,0.0139,0.0164,0.0176,0.0181,0.0183,0.0171,0.0162,0.0152,0.0146,0.0146,0.0144,0.015,0.0148,0.0149,0.015,0.0162,0.0163,0.0144,0.0144,0.0144,0,-0.0061,-0.0033,0.0005,0.0026,0.0046,0.0089,0.0105,0.0127,0.0162,0.0174,0.0189,0.0183,0.0174,0.0156,0.0158,0.0149,0.0153,0.015,0.015,0.0151,0.0151,0.0163,0.0165,0.0145,0.0145,0.0145,0.0145,0,-0.0066,-0.0037,-0.0029,0.0015,0.0039,0.006,0.0099,0.0126,0.0159,0.0181,0.0193,0.0184,0.0182,0.0178,0.0165,0.016,0.0164,0.0154,0.015,0.0154,0.0166,0.0167,0.0146,0.0146,0.0146,0.0146,0,0,-0.0111,-0.0046,-0.0041,-0.0016,0.0041,0.0059,0.0087,0.0121,0.0146,0.0174,0.0197,0.018,0.0193,0.0182,0.0172,0.0168,0.0179,0.0164,0.0163,0.0182,0.0187,0.0169,0.0169,0.0171,0.0171,0.0171,0.02,0,-0.0125,-0.0094,-0.0054,-0.0023,-0.0001,0.005,0.0074,0.0113,0.0147,0.018,0.0185,0.0198,0.019,0.0193,0.0188,0.0181,0.0181,0.0173,0.0176,0.0176,0.0164,0.0168,0.0171,0.0201,0.0201,0.0201,0.0201,0,-0.0139,-0.0112,-0.0086,-0.0026,-0.0011,0.0015,0.007,0.0098,0.0147,0.0174,0.0193,0.0208,0.021,0.0204,0.02,0.0198,0.0193,0.0189,0.0189,0.0163,0.0159,0.0192,0.0203,0.0203,0.0203,0.0203,0.0203,0,-0.0185,-0.0132,-0.0112,-0.0091,-0.0023,0.0004,0.0042,0.0098,0.0131,0.0177,0.0205,0.0213,0.0228,0.0219,0.0213,0.0212,0.0212,0.0208,0.0189,0.0189,0.0189,0.0187,0.0203,0.0203,0.0203,0.0203,0.0203,0,-0.0203,-0.0186,-0.0126,-0.0111,-0.0074,-0.0016,0.003,0.007,0.013,0.016,0.0203,0.0213,0.0233,0.0237,0.0223,0.0211,0.0221,0.0192,0.0191,0.0198,0.0198,0.0191,0.0189,0.0204,0.0203,0.0203,0.0203,0,-0.0238,-0.0204,-0.018,-0.0117,-0.009,-0.006,0.0032,0.0063,0.0123,0.0164,0.018,0.0226,0.0227,0.024,0.0231,0.0228,0.0212,0.0202,0.0221,0.0221,0.0195,0.0194,0.0199,0.0198,0.0198,0.0197,0.0197,0,-0.0242,-0.0237,-0.0192,-0.0167,-0.0128,-0.007,-0.0026,0.005,0.0081,0.0151,0.0158,0.0193,0.021,0.0208,0.0204,0.0202,0.0189,0.0206,0.019,0.0194,0.0193,0.0192,0.0192,0.0196,0.0196,0.0196,0.0196,0,-0.0255,-0.0253,-0.0235,-0.0194,-0.0147,-0.0096,-0.0033,-0.0008,0.0067,0.0113,0.0147,0.0173,0.018,0.0184,0.0194,0.0178,0.0211,0.0201,0.0202,0.0187,0.0191,0.019,0.019,0.0195,0.0195,0.0195,0.0195,0,-0.0269,-0.0267,-0.0252,-0.0207,-0.0165,-0.0119,-0.0081,-0.0027,0.0019,0.0101,0.0092,0.0132,0.016,0.0168,0.0155,0.0164,0.0162,0.0174,0.0176,0.0178,0.0155,0.0157,0.0149,0,0,0,0,0,-0.027,-0.027,-0.025,-0.021,-0.0177,-0.0142,-0.0083,-0.0048,0.0012,0.0035,0.0078,0.008,0.011,0.0118,0.0121,0.0125,0.0147,0.0128,0.0157,0.0186,0.0188,0.0162,0,0,0,0,0,0,-0.027,-0.027,-0.0262,-0.022,-0.0191,-0.0147,-0.0107,-0.0068,-0.0048,0.0009,0.0018,0.0071,0.0083,0.0098,0.0113,0.0117,0.0136,0.015,0.015,0.0185,0.0187,0.0188,0.0162,0,0,0,0,0]},{"header":{"parameterUnit":"m.s-1","parameterCategory":2,"la1":30.2991,"la2":30.254,"lo1":-89.0895,"lo2":-89.0444,"dy":0.0017,"dx":0.0017,"nx":28,"ny":28,"refTime":"2024-07-24T03:00:00:Z","depth":"4","parameterNumber":3,"parameterNumberName":"V-component_of_CURRENTS"},"data":[0,0,0,0,0,0,0,0,0,0,0,0,0,0,0,0,0,0,0,0,0,0,0,0,0,0,0,0,0,0,0,0,0,0,0,0,0,0,0,0,0,0,0,0,0,0,0,0,0,0,0,0,0,0,0,0,0,0,0.0231,0.0231,0,0.0191,0.0191,0.019,0.0138,0.0138,0.0137,0.0136,0.0012,0.0009,0.0007,0,0,0,0,0,0,0,0,0,0,0,0,0,0.026,0.0259,0.0231,0.0231,0.0231,0.0191,0.0191,0.019,0.0138,0.0138,0.0137,0.0136,0.0013,0.001,0.0007,0,0,0,0,0,0,0,0,0,0,0,0,0,0.0235,0.0259,0.0231,0.0202,0.0199,0.0191,0.019,0.019,0.0139,0.0138,0.0137,0.0136,0.0014,0.001,0.0006,0.0002,0,0,-0.0006,-0.0008,0,0,0,0,0,0,0,0,0.0236,0.0233,0.0206,0.0204,0.02,0.017,0.0155,0.0123,0.0139,0.016,0.0136,0.0135,0.0059,0.0051,0.0045,-0.0004,-0.001,-0.0007,-0.0009,-0.0011,-0.0012,0,0,0,0,0,0,0,0.0238,0.0235,0.0214,0.0206,0.0202,0.0189,0.0184,0.0149,0.0112,0.0158,0.0154,0.0153,0.0056,0.0049,0.0041,-0.0011,-0.0006,-0.001,-0.0012,-0.0014,-0.0135,-0.0136,0,0,0,0,0,0,0.0248,0.0237,0.0215,0.0213,0.0218,0.019,0.0184,0.0179,0.0115,0.0105,0.0154,0.0151,0.0056,0.0046,0.0036,-0.0045,-0.0011,-0.0014,-0.0017,-0.0134,-0.0135,-0.0136,0,0,0,0,0,0,0.0249,0.0246,0.0217,0.0225,0.0221,0.019,0.0186,0.0179,0.0144,0.0113,0.0101,0.0122,0.0055,0.0042,-0.0009,-0.0048,-0.0016,-0.002,-0.0133,-0.0135,-0.0136,-0.0162,0,0,0,0,0,0,0.025,0.0247,0.0236,0.0226,0.0221,0.0193,0.0186,0.0179,0.0147,0.0142,0.0082,0.0071,0.0053,-0.0002,-0.0012,-0.0052,-0.0023,-0.0132,-0.0134,-0.0135,-0.016,-0.0164,-0.0167,0,0,0,0,0,0.0251,0.0238,0.0236,0.0233,0.0211,0.0193,0.0188,0.0162,0.0146,0.0127,0.0094,0.0072,-0.0019,-0.0006,-0.0018,-0.006,-0.0132,-0.0133,-0.0135,-0.0158,-0.0163,-0.0167,0,0,0,0,0,0,0.0238,0.0232,0.0229,0.0213,0.0198,0.0184,0.0161,0.0149,0.0109,0.0092,0.0064,0.0051,-0.0008,-0.0025,-0.0009,-0.0097,-0.0081,-0.0085,-0.0094,-0.0099,-0.0102,-0.0096,-0.0026,0,0,0,0,0,0.0236,0.0222,0.0218,0.02,0.0191,0.0173,0.0158,0.0141,0.0113,0.0093,0.0054,0.0014,-0.0019,-0.0052,-0.0082,-0.0132,-0.0124,-0.0167,-0.017,-0.0173,-0.0175,-0.0183,-0.0187,-0.0142,-0.0142,-0.0142,0,0,0.0225,0.022,0.021,0.0196,0.0179,0.0161,0.0159,0.0126,0.0101,0.0085,0.0023,-0.0002,-0.0032,-0.0084,-0.0113,-0.011,-0.018,-0.0176,-0.0178,-0.0178,-0.0185,-0.0189,-0.0193,-0.0143,-0.0143,-0.0143,0,0,0.0198,0.0191,0.0171,0.016,0.0136,0.0131,0.0117,0.0088,0.0061,0.0014,-0.0001,-0.0042,-0.0107,-0.0127,-0.0146,-0.0187,-0.0194,-0.0211,-0.0235,-0.0243,-0.0247,-0.025,-0.0236,-0.0237,-0.0219,-0.0219,-0.0219,0,0.0182,0.0167,0.016,0.0139,0.0129,0.0114,0.0092,0.0067,0.0022,0.0003,-0.0016,-0.0091,-0.0124,-0.0166,-0.0186,-0.0198,-0.0194,-0.0218,-0.0247,-0.025,-0.0253,-0.0238,-0.0239,-0.022,-0.022,-0.022,-0.022,0,0.0146,0.0132,0.0116,0.0092,0.0077,0.0054,0.0034,0.0002,-0.003,-0.0051,-0.0109,-0.0142,-0.0183,-0.0206,-0.0217,-0.0257,-0.0245,-0.0244,-0.0234,-0.0259,-0.0241,-0.0242,-0.0222,-0.0222,-0.0222,-0.0221,0,0,0.0119,0.0098,0.009,0.0088,0.0054,0.0045,-0.0001,-0.0028,-0.0051,-0.0109,-0.014,-0.0206,-0.0222,-0.0242,-0.0261,-0.0278,-0.0298,-0.028,-0.028,-0.0262,-0.0303,-0.0279,-0.0277,-0.0307,-0.0308,-0.0308,-0.028,0,0.0093,0.0069,0.0055,0.0031,0.0025,0.0004,-0.0027,-0.006,-0.0094,-0.0129,-0.017,-0.021,-0.0236,-0.0259,-0.0284,-0.029,-0.0304,-0.0305,-0.0286,-0.0285,-0.0258,-0.028,-0.031,-0.028,-0.0281,-0.0281,-0.0281,0,0.0065,0.0061,0.0038,0.0031,0.0022,-0.0004,-0.0033,-0.0064,-0.0113,-0.0142,-0.019,-0.0217,-0.026,-0.0274,-0.0304,-0.0305,-0.0313,-0.0315,-0.0314,-0.0284,-0.0263,-0.0254,-0.0282,-0.0282,-0.0282,-0.0282,-0.0282,0,0.0078,0.0053,0.0044,0.0037,0.0015,-0.0009,-0.0031,-0.0076,-0.0093,-0.0151,-0.0166,-0.0221,-0.0241,-0.027,-0.0286,-0.0302,-0.0296,-0.0312,-0.0292,-0.0289,-0.0306,-0.0303,-0.0331,-0.0331,-0.0331,-0.0331,-0.0331,0,0.0071,0.0065,0.0048,0.0045,0.0031,0.0001,-0.0026,-0.0057,-0.0097,-0.0107,-0.0172,-0.0182,-0.0245,-0.025,-0.0275,-0.0277,-0.0286,-0.0296,-0.0286,-0.0316,-0.0315,-0.0305,-0.0303,-0.033,-0.033,-0.033,-0.033,0,0.0076,0.0068,0.0069,0.0048,0.0038,0.0023,-0.0012,-0.0026,-0.0069,-0.0082,-0.0099,-0.0149,-0.0169,-0.02,-0.0227,-0.0247,-0.0255,-0.0249,-0.0255,-0.0245,-0.0247,-0.0246,-0.0242,-0.0241,-0.024,-0.0239,-0.0239,0,0.007,0.0073,0.0076,0.0077,0.0059,0.0036,0.0021,-0.0017,-0.0023,-0.0051,-0.0047,-0.0079,-0.0111,-0.0127,-0.0168,-0.0199,-0.021,-0.021,-0.0266,-0.025,-0.0241,-0.0241,-0.0242,-0.0237,-0.0237,-0.0237,-0.0237,0,0.0062,0.0069,0.0072,0.0082,0.0072,0.0074,0.0051,0.0051,0.002,0.0006,-0.0013,-0.0051,-0.0064,-0.0114,-0.0128,-0.0154,-0.0215,-0.0202,-0.0205,-0.0259,-0.0245,-0.0237,-0.0238,-0.0234,-0.0234,-0.0235,-0.0235,0,0.0052,0.0057,0.0067,0.0071,0.0081,0.0086,0.008,0.0067,0.0056,0.0027,0.0035,-0.0013,-0.0038,-0.0086,-0.0094,-0.0123,-0.0153,-0.0177,-0.0182,-0.0186,-0.0188,-0.0163,-0.012,0,0,0,0,0,0.0034,0.0036,0.005,0.0059,0.0079,0.0079,0.009,0.0086,0.0077,0.0069,0.0043,0.0026,-0.0029,-0.0054,-0.0081,-0.0085,-0.0152,-0.0118,-0.0181,-0.0218,-0.0222,-0.0233,0,0,0,0,0,0,0.0019,0.0028,0.0042,0.0048,0.0053,0.0066,0.0073,0.0073,0.0065,0.0056,0.0027,0.0014,-0.0035,-0.0019,-0.0087,-0.0094,-0.0138,-0.014,-0.0141,-0.0217,-0.022,-0.0222,-0.0235,0,0,0,0,0]}]]